Location: Newark
(45.8378°N, 5.5389°E)
Time: 13:00:06
(UTC+00:00)

YUBILEINY - Pass Details

Date: 23 December 2019
Orbit: 1478 x 1509 km, 82.5° (Epoch: 18 January)

Event Time Altitude Azimuth Distance (km) Brightness Sun altitude
Rises 17:44:33 0° 133° (SE) 4,603 ? -17.9°
Enters shadow 17:47:26 - 123° (ESE) 3,847 ? -18.3°
Exits shadow 18:03:23 - 20° (NNE) 4,546 ? -21.0°
Sets 18:03:31 0° 20° (NNE) 4,585 ? -21.1°
